Location: Highridge
(54.0333°N, 114.1333°W)
Time: 12:48:59
(UTC+00:00)

Oscar 19 - Pass Details

Date: 08 December 2023
Orbit: 771 x 789 km, 98.9° (Epoch: 01 March)

Event Time Altitude Azimuth Distance (km) Brightness Sun altitude
Rises 12:01:14 0° 19° (NNE) 3,276 14.1 -30.9°
Reaches altitude 10° 12:03:39 10° 26° (NNE) 2,346 13.4 -30.5°
Maximum altitude 12:08:37 46° 99° (E) 1,054 11.6 -29.8°
Drops below altitude 10° 12:13:35 10° 172° (S) 2,341 13.2 -29.1°
Sets 12:15:59 0° 179° (S) 3,267 13.9 -28.7°
